Theta_e
298 297 296 296 296 297 297 297 298 299 299 300 301 302 304 305 306 307 306 304 305 307 307 307 308 311 311 308 306 306 305 306 306 305 307 307 308 309 310 310 312 312 312 315 319 320 319 320 322 322 322 320 317 316 317 316 319 323 321 320 320 322 328 327 320 320 324 323 319 318 318 320 326 325 320 322 323 322 327 330 327 324 323 325 328 328 323
297 296 296 296 297 297 297 297 298 299 299 300 301 302 304 304 305 306 305 305 308 309 308 309 310 309 309 309 309 306 305 306 304 305 307 308 309 311 310 309 311 311 313 316 316 317 320 319 318 321 323 320 316 316 318 320 323 323 320 320 320 317 321 325 324 321 323 325 323 321 322 324 326 322 318 320 320 319 320 323 328 326 320 323 331 328 321
297 296 296 296 296 297 297 297 298 298 299 300 301 302 303 305 306 306 305 306 308 309 310 311 311 311 313 315 314 311 310 309 307 307 309 308 308 310 310 308 310 312 316 317 315 316 321 320 318 321 323 320 315 315 318 323 325 323 319 319 321 319 318 325 330 327 325 326 326 323 323 323 322 318 316 318 319 320 320 321 329 328 318 320 329 325 317
297 296 296 296 296 297 297 297 298 299 299 300 301 302 304 305 306 306 306 306 307 309 310 310 312 314 315 315 314 313 311 310 309 309 309 308 308 310 310 310 312 315 316 318 317 316 319 319 319 322 323 320 315 313 316 321 324 325 319 316 321 321 315 316 323 326 326 324 321 318 318 322 323 318 315 316 314 315 322 326 327 325 320 322 325 319 315
296 296 296 296 297 297 298 298 298 299 299 300 302 303 304 306 307 307 308 307 308 310 310 310 313 313 313 313 313 313 311 310 310 309 308 308 309 311 311 311 313 315 316 319 319 316 317 319 319 320 320 319 317 314 313 316 320 322 318 316 321 324 318 314 315 317 316 315 314 315 315 318 318 316 314 314 312 316 326 327 320 319 323 325 320 315 316
296 296 296 296 297 298 298 298 299 298 299 301 302 304 305 306 306 307 309 309 309 310 310 311 313 313 313 314 313 313 312 310 309 309 310 310 309 313 316 312 312 315 317 320 319 317 319 319 317 319 319 319 322 318 313 313 315 319 320 318 321 324 319 314 314 314 313 313 313 314 314 314 314 314 315 314 314 319 324 320 314 318 327 325 318 315 315
295 296 296 296 297 298 298 298 299 299 300 302 303 304 306 306 306 307 310 310 309 309 310 310 312 313 314 315 314 313 312 310 308 309 313 313 310 313 317 312 311 314 318 322 321 318 321 320 316 317 319 318 321 321 315 312 312 317 322 319 317 320 317 313 313 314 312 312 313 313 313 313 313 313 313 313 313 315 316 315 314 317 320 318 314 312 311
296 296 296 297 298 298 298 298 299 300 302 303 304 305 306 306 307 308 310 311 309 309 310 311 313 314 313 315 315 312 311 311 310 308 310 314 312 311 313 310 309 311 314 318 318 315 319 322 318 317 319 318 319 320 317 313 313 319 323 319 315 318 318 314 313 314 313 312 312 313 313 313 313 312 312 312 313 313 313 313 313 314 313 312 310 310 308
296 296 297 297 297 298 298 299 300 301 303 304 304 305 305 306 307 308 311 312 311 310 310 311 314 313 312 314 315 312 309 309 310 308 307 310 311 311 311 310 309 310 310 313 312 310 313 317 314 316 318 315 314 315 313 312 318 323 321 319 320 321 318 315 315 317 315 312 312 313 313 313 314 313 312 312 312 312 312 311 312 312 312 310 311 311 308
295 296 297 297 298 298 298 299 300 302 304 304 304 304 305 306 308 310 311 312 311 311 310 309 312 313 312 313 313 310 310 309 310 312 308 307 308 308 309 311 311 311 310 310 309 308 309 310 308 309 312 310 309 311 310 310 317 323 320 318 320 319 316 316 318 319 316 313 313 314 316 319 318 313 311 311 311 311 311 310 310 311 311 312 313 310 307
295 297 298 298 298 298 298 299 301 302 304 305 304 304 304 306 308 308 310 311 309 308 307 308 311 313 310 310 309 309 312 312 312 313 311 308 308 307 308 310 312 311 309 308 308 308 309 311 311 311 311 311 309 309 310 310 312 316 320 320 316 315 316 318 318 318 316 313 312 315 319 321 316 310 309 311 310 310 310 309 308 308 309 309 309 306 304
296 298 299 299 299 299 299 300 301 302 304 304 304 304 304 305 307 307 308 311 309 306 307 308 309 309 306 307 308 309 310 310 309 310 310 309 308 307 307 310 313 312 308 307 309 310 311 310 311 312 311 310 309 308 310 313 311 309 312 317 316 316 318 318 316 316 316 314 314 319 321 316 310 308 309 309 308 308 308 307 306 306 306 306 306 305 304
297 299 299 299 299 299 300 301 303 304 304 304 303 303 303 304 306 306 306 310 312 309 308 306 304 304 305 306 307 307 306 306 307 307 308 308 307 307 307 309 312 309 307 308 308 309 312 312 313 315 315 314 315 312 310 312 312 310 310 312 315 318 318 316 316 316 316 315 316 318 316 310 308 309 309 309 309 309 309 309 307 306 305 305 305 304 302
298 299 299 299 299 299 300 302 305 305 303 303 302 302 303 303 304 305 305 308 311 307 305 306 306 305 306 306 306 306 306 306 307 306 306 307 307 306 306 307 309 307 307 309 308 308 312 316 316 316 316 319 320 316 313 312 311 311 312 310 311 316 318 316 316 315 314 314 313 313 312 310 309 310 309 310 310 310 311 310 308 306 305 304 303 303 302
299 299 299 299 299 299 300 302 305 305 302 302 303 303 304 304 304 305 305 306 311 309 305 306 307 305 305 305 306 308 310 310 309 307 307 306 305 306 306 306 307 308 307 309 312 314 315 315 315 314 314 317 317 313 314 315 312 309 309 309 310 315 317 318 318 314 312 312 311 311 312 312 311 310 309 308 309 309 308 309 308 307 305 304 303 302 302
299 299 299 299 298 299 301 302 303 304 303 303 304 304 304 304 305 306 306 305 310 310 305 304 304 303 304 305 305 307 309 311 312 312 311 308 305 306 307 307 308 309 308 308 312 317 318 315 314 315 313 312 313 312 312 315 314 311 310 310 311 312 313 316 318 314 312 314 314 313 313 311 310 309 307 307 308 308 308 311 311 307 304 304 303 303 303
299 299 299 298 298 299 302 303 303 304 304 304 305 305 305 306 307 308 308 306 306 305 303 304 305 304 305 307 307 306 306 307 309 311 311 308 305 306 308 308 308 308 309 312 313 317 319 314 313 315 312 308 310 312 312 314 316 316 316 316 314 314 314 315 316 314 313 314 313 312 311 309 308 308 307 307 307 307 309 314 312 306 305 305 303 303 303
300 299 299 298 299 300 303 304 304 304 305 305 305 305 306 307 308 308 309 308 305 304 304 305 306 306 307 308 308 306 306 307 308 309 309 306 306 308 308 307 309 308 309 315 318 318 317 313 312 315 314 309 308 310 311 315 316 312 311 312 313 313 312 312 313 312 311 311 310 309 308 308 307 307 306 306 307 309 312 313 308 304 305 305 303 303 303
300 300 299 298 300 302 304 304 304 304 305 305 306 306 306 307 307 307 307 306 304 304 305 306 307 307 307 307 307 307 308 308 308 310 313 309 307 308 307 306 309 308 307 313 316 314 314 312 309 312 315 312 309 309 310 312 312 308 308 311 313 312 311 310 311 309 308 308 308 309 309 307 306 306 306 307 310 311 310 307 304 304 305 305 304 304 303
300 300 299 299 301 303 304 304 304 304 305 307 307 306 306 306 306 306 306 304 303 304 305 306 307 308 308 308 308 308 308 308 307 311 316 312 307 308 310 309 309 308 309 314 314 310 313 314 309 309 314 312 308 309 309 308 306 306 307 309 310 309 309 309 307 305 306 308 308 311 312 307 304 306 307 308 310 308 304 302 302 304 304 304 304 304 303
301 300 299 300 301 303 304 304 304 305 306 307 307 306 305 305 305 305 306 305 304 304 306 307 308 308 309 309 309 308 309 309 307 308 311 309 307 310 313 313 310 308 310 315 313 308 310 313 309 308 311 310 307 309 310 309 307 304 304 306 306 306 307 308 304 303 308 312 310 309 308 304 303 306 307 306 306 304 303 302 302 302 303 303 303 303 303
301 300 299 300 302 303 303 304 305 306 307 307 306 306 305 305 305 305 305 305 304 304 305 307 308 309 309 309 309 309 309 309 308 308 308 308 307 309 310 310 309 308 308 312 313 310 309 311 310 309 310 309 308 307 307 309 310 305 303 306 307 305 305 306 304 303 306 308 306 304 303 303 303 304 304 303 303 303 303 303 302 301 302 302 302 302 302
300 300 299 301 302 303 303 304 305 307 306 306 305 305 304 304 304 304 304 304 303 304 305 307 308 308 309 309 310 310 309 309 309 308 308 309 308 308 309 308 309 309 308 310 312 312 311 310 309 310 310 308 307 307 306 307 308 305 304 305 305 303 304 305 304 304 304 304 303 303 303 303 303 303 302 303 303 303 303 303 302 301 302 302 302 301 301
300 299 299 301 302 302 303 305 306 306 306 305 304 303 303 303 303 304 304 304 304 305 305 306 306 306 307 308 309 309 309 309 309 309 309 309 309 309 310 309 309 309 308 308 308 308 308 307 306 308 308 305 305 310 309 306 305 304 305 306 305 304 304 304 304 304 304 304 303 303 302 302 302 302 302 302 302 303 302 302 302 301 301 301 301 300 300
300 299 299 301 301 302 304 306 306 305 305 305 304 304 304 304 303 304 304 304 304 305 305 305 305 305 306 308 308 309 309 309 309 309 309 309 309 310 310 309 309 309 308 308 308 307 307 306 307 309 308 304 305 308 307 305 305 305 306 307 305 304 304 304 303 303 304 304 303 302 301 301 301 301 301 301 302 302 301 301 301 301 301 301 300 300 299
299 298 299 301 301 302 304 306 305 305 305 305 305 305 304 304 303 304 304 304 305 305 305 305 305 305 307 308 308 308 309 309 309 309 309 309 309 309 309 308 308 308 307 307 307 305 304 305 308 310 308 304 305 306 305 304 305 305 305 305 304 303 303 303 303 303 303 303 302 301 301 301 300 301 301 301 301 301 301 301 301 300 300 300 299 299 300
298 297 299 301 301 302 304 306 306 305 305 305 305 305 305 304 304 304 305 305 305 306 305 304 304 305 306 307 307 308 309 309 309 309 308 309 308 308 308 308 307 307 307 307 306 305 304 305 306 306 305 304 304 303 303 303 303 305 305 303 302 303 303 302 302 303 303 302 301 301 302 302 301 300 301 301 301 301 301 300 300 300 300 299 299 299 299
296 296 299 301 301 302 304 306 306 306 305 305 305 305 305 304 304 304 305 305 306 306 305 304 304 305 305 305 306 307 308 308 308 307 307 308 307 307 307 307 307 307 306 305 305 305 305 305 304 303 303 304 304 303 302 302 304 305 305 303 302 303 302 301 302 303 302 302 301 301 301 301 300 301 301 300 301 300 300 300 300 299 299 299 298 298 298
295 296 299 301 302 302 304 305 306 306 306 305 305 305 305 304 304 304 304 305 306 306 305 305 305 305 304 304 305 306 307 307 307 307 307 307 307 306 306 306 306 306 305 305 305 304 302 303 303 303 303 304 305 305 305 305 305 304 303 301 301 302 301 301 302 302 301 301 301 300 301 301 301 301 300 300 300 300 299 299 299 298 298 297 297 297 297
295 296 298 301 302 302 303 305 305 306 306 305 305 305 305 304 304 304 304 305 306 305 305 306 306 304 303 304 304 305 306 306 307 306 306 306 306 306 306 306 305 305 305 304 303 302 302 301 302 303 303 303 305 306 306 305 304 302 301 301 301 301 301 301 302 302 301 301 300 300 301 301 301 300 300 300 300 299 298 298 298 297 297 297 297 297 297
296 296 297 300 302 302 303 305 305 306 306 306 305 304 304 305 305 304 304 305 306 305 305 305 305 304 304 304 304 304 305 306 306 306 305 305 305 305 305 305 305 305 304 304 303 302 302 301 301 302 303 303 304 305 305 305 305 303 301 301 301 301 301 301 301 302 301 300 300 301 300 300 300 300 300 300 299 298 297 297 297 297 297 297 297 297 297
296 296 297 300 301 302 303 304 305 305 305 305 305 304 304 305 305 304 305 305 305 305 305 305 304 304 304 304 304 304 304 305 305 305 305 304 304 305 305 304 304 304 304 304 303 302 301 301 301 303 303 303 304 306 306 305 304 302 301 301 301 300 300 301 301 301 301 300 300 300 300 300 300 300 299 299 298 297 297 297 297 297 297 297 297 297 297
296 295 297 300 301 301 303 304 304 305 305 305 304 305 305 305 305 304 305 305 305 305 304 304 304 303 303 304 304 304 304 305 304 304 304 304 304 304 304 303 304 303 304 303 302 302 302 302 302 303 303 302 304 307 306 303 302 301 301 301 301 300 300 300 300 300 300 300 300 300 300 300 299 299 298 298 298 298 298 298 298 298 298 298 298 299 299
296 296 297 299 300 301 302 303 304 304 305 304 304 305 305 305 304 304 305 305 305 305 304 305 306 306 304 304 304 304 304 304 304 304 304 303 303 303 303 303 303 302 303 302 301 302 302 301 302 303 303 301 302 305 304 302 300 301 301 301 300 300 300 300 300 300 300 300 299 299 299 299 299 298 298 298 298 298 298 298 299 298 299 299 299 299 299
296 296 297 299 300 301 303 304 304 304 304 304 304 304 305 305 304 304 305 304 304 305 304 304 306 307 306 305 305 304 303 303 303 303 303 303 303 303 302 302 302 302 302 302 302 301 301 301 302 302 300 299 303 305 303 300 300 301 302 302 301 301 300 300 300 300 300 300 300 300 299 299 299 299 298 298 298 299 299 299 299 299 299 299 299 299 299
297 296 297 299 300 302 303 305 305 304 304 304 304 304 305 305 304 304 304 304 304 304 303 302 304 307 308 306 304 303 303 303 302 302 302 303 303 302 303 303 303 302 301 301 301 301 301 301 302 302 300 300 303 303 301 301 301 301 302 302 301 300 300 300 300 301 300 300 300 300 300 300 300 299 299 299 299 299 299 299 299 299 299 299 299 299 299
297 297 299 301 302 303 305 305 304 303 303 303 303 304 305 304 304 304 304 303 304 304 303 304 306 305 304 303 302 302 303 303 302 301 302 302 302 301 302 304 304 303 303 303 302 301 301 301 303 304 303 302 302 302 301 302 302 301 302 302 301 301 301 301 301 301 301 300 301 301 301 301 300 300 300 300 300 300 300 299 300 300 299 299 299 299 299
297 298 301 303 304 305 305 303 302 302 303 303 303 304 304 304 304 304 303 304 304 303 303 306 305 302 302 303 303 303 303 302 301 302 302 302 302 301 302 302 302 303 305 304 302 301 301 302 304 304 301 299 300 302 303 303 302 301 301 301 301 301 301 301 301 301 301 301 301 301 301 301 301 301 301 301 300 300 300 300 300 300 299 299 300 299 299
299 300 303 305 305 305 304 303 302 302 302 303 303 304 303 304 304 303 302 303 303 303 304 305 303 301 303 306 304 302 301 302 303 304 303 303 303 303 302 302 303 304 305 304 301 302 303 304 304 304 302 300 300 302 303 303 302 302 301 301 300 300 301 301 301 301 301 301 301 301 301 301 301 301 301 301 301 301 301 300 300 300 300 300 300 300 300
302 302 304 304 304 304 304 302 302 302 302 303 303 303 303 303 303 302 302 304 304 303 303 303 303 303 304 305 304 304 303 303 305 306 305 303 303 302 302 301 302 304 305 303 300 301 304 304 303 303 302 300 301 302 303 303 303 302 301 301 301 300 300 301 301 300 300 300 300 300 300 300 300 300 300 300 300 300 301 300 300 300 300 300 300 300 300
303 303 303 303 303 303 302 302 302 302 302 303 303 303 302 302 301 301 303 305 305 303 302 303 303 303 303 304 305 305 303 303 304 304 303 302 302 302 303 301 300 303 305 302 300 303 306 304 303 304 303 301 301 303 302 302 303 302 302 302 302 301 301 301 301 300 300 300 300 300 300 300 300 300 300 300 300 300 300 300 300 300 300 300 300 300 300
304 303 303 302 302 302 302 302 302 302 302 302 303 302 301 301 300 301 302 303 303 303 303 303 303 303 303 304 304 304 304 303 302 303 304 303 301 301 304 303 301 303 304 301 301 306 308 305 304 306 305 301 301 302 302 302 303 303 302 302 302 302 302 301 301 300 300 300 300 300 300 300 300 300 300 299 300 300 300 300 300 300 300 300 300 300 300
303 302 302 302 302 302 302 302 301 301 302 303 303 303 302 301 301 301 302 302 301 302 303 303 302 303 304 303 302 303 304 303 301 302 304 302 300 301 305 304 303 302 301 300 303 307 307 307 308 308 304 301 301 302 302 302 302 302 302 302 302 302 301 301 300 300 300 300 300 300 300 300 300 300 299 299 299 299 299 299 299 300 300 300 300 300 300
302 302 302 302 301 301 301 301 300 300 301 303 302 302 303 303 303 304 305 303 302 303 303 303 303 304 304 302 302 302 302 302 302 302 300 299 300 303 305 303 301 298 299 302 305 304 304 306 307 303 300 301 302 302 302 302 302 302 302 302 302 302 301 301 300 300 300 300 300 300 300 300 300 299 299 299 299 299 299 299 299 300 300 299 299 300 300
302 302 302 302 300 300 300 301 300 300 301 303 304 306 307 307 308 310 309 305 303 304 304 303 303 304 303 301 302 302 301 302 303 302 299 299 302 303 302 301 301 300 301 304 304 302 304 307 304 299 299 301 302 301 302 303 302 302 303 302 302 302 301 301 301 301 301 301 301 300 300 300 300 299 299 299 299 299 298 298 299 299 299 299 299 299 299
303 302 301 301 301 300 299 300 301 301 300 301 303 305 306 305 306 306 305 303 303 304 304 303 304 304 302 301 302 302 301 302 303 301 299 301 304 301 298 298 301 302 303 302 302 305 310 309 301 298 300 302 302 301 302 302 302 302 302 302 302 301 301 301 301 301 300 301 301 301 300 300 300 299 299 299 298 298 298 298 298 298 298 298 298 299 299
303 301 299 301 301 300 299 300 302 301 300 299 300 301 302 302 302 302 303 303 304 304 304 303 303 303 302 301 301 301 301 302 302 300 298 301 303 300 298 300 303 303 302 301 304 310 313 307 300 299 301 302 301 301 302 301 302 302 302 301 301 301 300 300 300 300 301 301 301 300 300 300 299 299 299 299 298 298 298 298 299 298 298 298 298 298 299
302 300 299 300 300 300 300 301 301 300 299 299 300 300 300 301 302 302 303 303 303 304 303 302 303 304 302 301 301 301 299 300 301 300 299 300 301 300 301 303 304 302 302 306 311 315 312 305 300 301 302 301 301 301 301 300 301 301 300 300 301 300 300 300 300 300 300 300 300 299 299 299 299 299 299 299 298 298 298 299 299 299 299 299 299 298 299
301 300 300 299 298 298 299 299 299 300 300 299 299 300 300 300 301 302 303 303 303 304 303 302 304 305 302 300 301 303 301 300 301 301 300 301 302 303 303 304 303 302 305 309 310 309 305 302 302 302 301 301 301 301 300 300 300 300 300 300 300 299 300 300 300 300 300 299 299 299 299 299 299 299 299 298 299 299 299 299 299 299 299 299 298 298 299
302 301 300 300 299 299 298 297 299 302 302 299 298 300 300 300 300 301 302 303 303 303 303 303 303 303 301 301 304 305 302 300 301 301 302 304 304 302 301 303 306 308 309 307 304 302 301 302 303 301 301 301 301 301 300 300 300 300 300 300 299 299 299 299 299 299 299 299 299 299 299 298 299 299 299 299 299 299 298 299 299 299 299 298 298 298 298
302 301 301 300 300 300 299 298 300 303 302 300 299 300 300 300 301 302 302 302 303 303 303 301 301 302 303 304 305 303 300 299 300 301 302 303 302 301 303 308 309 307 305 303 301 301 302 303 302 301 301 301 300 300 300 300 300 300 300 300 299 299 299 299 299 299 299 299 299 299 299 299 299 299 299 299 299 299 299 299 299 299 298 298 298 298 299
300 300 300 300 299 299 299 299 300 300 300 300 300 300 300 301 301 302 302 302 303 303 301 300 302 305 306 304 302 300 300 301 302 302 302 301 299 301 307 312 309 303 301 301 301 302 302 302 302 302 302 301 300 301 300 300 300 300 300 299 299 299 299 299 299 299 299 299 299 299 299 299 299 298 298 298 299 299 299 299 299 299 299 298 298 299 299
Wind_Speed
17 13 8 7 7 7 9 7 6 6 5 5 3 2 2 1 1 2 9 19 16 8 2 1 1 1 2 3 3 3 4 8 10 11 10 7 4 2 1 1 1 2 2 3 4 4 4 3 1 3 2 2 1 4 2 7 7 5 2 2 2 2 4 4 1 3 3 4 4 3 4 5 6 4 3 2 1 2 5 5 4 4 3 2 3 1 2
16 11 8 8 7 7 8 4 4 5 5 4 3 3 2 3 5 6 16 19 6 1 2 2 2 3 3 2 2 4 7 10 12 9 6 4 2 1 2 1 1 2 1 4 4 3 3 3 1 2 3 1 4 7 4 7 4 2 4 5 4 2 1 4 3 3 4 5 5 4 4 4 4 3 4 3 2 3 4 3 4 4 4 4 4 2 2
14 9 8 8 6 6 7 4 3 5 3 1 2 3 2 4 6 5 15 13 1 2 2 1 2 3 2 1 1 4 6 10 14 11 6 5 3 1 2 2 2 3 4 5 5 3 4 2 1 2 2 1 4 9 9 6 3 3 4 7 7 4 2 3 5 4 3 1 1 1 0 2 3 3 5 5 4 3 3 4 4 3 4 3 4 3 3
13 9 8 7 5 6 6 4 3 4 4 2 1 1 0 2 2 2 8 10 6 5 5 2 3 3 1 1 2 3 4 8 11 9 5 4 3 3 3 3 3 6 7 7 6 7 6 5 4 3 2 1 2 7 11 10 8 9 10 10 8 5 3 4 5 5 4 4 2 2 1 3 2 3 6 7 4 3 3 5 3 5 5 1 1 6 8
11 9 8 6 4 6 6 4 4 2 1 1 1 1 1 2 1 2 4 5 6 6 7 3 1 1 3 2 3 4 5 6 6 3 1 4 5 4 4 5 4 5 6 7 4 6 7 7 5 3 2 2 0 6 10 10 7 7 7 7 5 5 4 5 7 9 5 4 4 4 6 6 4 4 7 8 5 3 5 5 2 4 6 1 3 9 10
10 8 7 4 5 7 6 4 5 4 2 4 2 1 2 1 1 2 4 3 3 3 4 4 3 1 3 1 3 3 4 4 3 2 1 5 7 4 4 8 6 3 4 5 3 3 6 6 4 2 3 2 2 6 7 8 7 6 5 6 5 6 4 3 7 11 10 7 6 8 10 9 8 9 9 9 8 7 8 5 2 2 4 5 9 11 8
10 8 6 4 6 8 6 4 5 4 1 5 4 1 0 1 1 2 3 2 2 3 3 5 4 1 2 1 3 3 4 3 1 2 3 5 8 5 4 6 7 5 4 5 4 2 4 3 1 1 3 3 3 3 3 5 8 7 5 5 4 5 3 2 7 11 11 9 6 7 11 10 10 12 12 11 11 12 11 7 6 7 7 8 13 13 8
9 8 6 6 8 8 6 6 5 1 4 5 2 1 1 0 3 2 2 2 1 2 2 5 3 0 2 2 4 4 3 1 2 3 3 2 4 5 6 4 6 8 8 8 5 0 4 6 3 3 3 2 2 2 2 0 6 6 3 2 4 4 4 4 3 7 7 7 6 8 11 12 11 11 10 10 9 10 9 7 7 9 9 10 12 11 6
9 7 6 7 8 8 7 6 4 1 5 2 2 2 2 4 6 4 3 2 1 1 1 4 4 1 1 4 4 3 1 1 3 5 7 5 2 3 7 7 7 9 11 11 6 1 5 9 6 6 7 5 3 2 2 2 2 4 3 2 4 4 5 3 1 5 3 2 5 8 9 12 11 10 9 9 7 6 6 5 5 4 8 11 10 6 4
8 6 6 8 8 9 7 4 2 3 3 2 2 3 3 5 4 2 1 1 1 1 2 3 3 1 3 5 3 3 3 2 3 5 8 10 7 5 8 8 7 7 10 9 5 5 10 13 12 13 16 16 13 10 9 7 5 2 3 3 3 3 6 3 2 4 2 3 1 3 5 6 6 5 6 6 4 5 6 6 6 4 4 7 5 3 5
6 5 6 8 8 9 8 3 3 4 3 1 3 4 2 6 6 4 1 1 0 2 3 3 3 2 4 5 3 1 1 3 3 5 2 5 5 6 10 12 9 6 6 7 9 16 22 23 24 26 26 25 22 19 17 15 10 4 3 3 4 4 6 4 1 4 4 4 3 4 4 3 1 3 4 2 2 6 8 6 7 6 4 4 5 6 7
5 5 7 8 8 8 8 3 5 5 2 1 3 4 3 7 7 5 3 1 1 1 1 2 3 3 2 5 2 2 4 5 6 9 8 2 2 7 11 11 7 4 5 9 15 19 20 19 20 22 21 20 21 22 21 15 13 11 6 8 6 5 5 3 2 3 4 2 2 3 1 2 1 2 3 5 7 10 12 10 8 8 8 10 11 9 7
5 6 7 7 7 7 8 3 5 4 0 1 2 3 4 8 7 5 3 1 1 1 1 1 2 2 4 8 7 5 8 12 14 15 11 5 3 6 9 7 6 6 8 12 14 12 8 7 8 8 8 9 10 14 16 12 12 13 10 7 7 6 5 3 3 3 3 2 2 2 2 1 2 2 2 4 5 5 8 9 7 6 6 8 9 9 9
6 7 6 6 6 6 7 5 4 3 1 2 3 4 6 8 8 6 3 1 1 2 0 3 4 4 4 6 6 6 8 10 13 12 9 7 6 8 9 9 9 8 8 10 9 7 4 3 4 4 5 6 6 5 6 7 9 10 9 7 4 6 6 4 3 2 2 3 3 2 3 2 2 1 1 1 1 1 2 4 4 4 4 7 9 9 10
7 7 6 6 6 6 5 5 5 3 2 1 2 5 8 11 11 8 5 2 0 2 4 3 1 3 3 4 5 6 5 6 6 6 6 7 8 9 8 9 9 6 4 5 5 5 3 3 3 3 2 2 2 1 2 3 5 7 7 6 5 5 4 5 4 1 2 4 4 3 2 2 2 2 1 1 1 2 3 4 2 3 6 10 10 10 11
7 7 6 6 6 5 5 6 5 2 1 2 5 8 10 11 9 5 3 2 1 2 5 4 1 1 4 6 7 7 4 2 2 3 5 6 6 7 7 7 6 5 4 5 5 4 4 3 3 3 1 2 2 1 1 2 3 5 7 8 10 9 5 5 6 3 2 4 3 2 2 1 1 2 0 3 1 3 3 4 1 3 8 12 11 11 12
6 6 6 5 6 6 6 5 3 2 3 6 9 11 8 6 4 2 1 0 2 3 6 5 2 3 4 5 5 5 4 4 3 4 3 2 3 4 6 6 5 5 5 5 4 4 4 3 3 3 1 2 2 2 1 2 2 3 6 8 9 8 5 4 5 4 3 4 3 1 1 0 1 0 2 3 1 3 3 2 2 4 9 13 13 13 13
6 5 5 6 7 7 6 4 4 5 7 10 12 10 4 1 2 2 2 2 2 4 9 9 6 6 5 4 3 3 4 5 5 4 3 1 2 3 4 4 4 5 5 4 2 3 4 2 2 3 1 1 1 2 2 2 2 1 3 3 4 4 4 3 4 4 4 4 3 1 0 1 0 1 3 2 1 2 2 1 3 6 10 12 13 14 14
5 5 5 7 7 6 4 4 7 9 11 12 10 6 3 3 3 3 5 5 5 6 10 12 11 11 10 7 6 5 4 5 6 5 3 2 1 3 5 4 3 2 3 4 3 2 3 1 1 3 2 1 1 2 2 2 1 0 1 2 1 2 2 2 2 3 3 3 2 1 0 1 0 2 2 2 2 1 1 3 8 12 14 13 13 14 14
4 5 6 7 6 5 4 6 9 12 12 11 7 4 4 5 6 6 6 7 8 10 13 14 13 13 11 9 8 6 4 4 6 6 4 2 3 4 5 3 2 2 3 4 3 1 2 2 1 1 2 1 1 3 2 1 1 1 1 1 1 1 2 2 2 2 2 3 3 2 1 1 1 1 1 2 1 4 9 12 13 14 15 14 14 14 13
4 5 6 6 5 5 5 7 10 12 11 9 6 5 7 7 8 9 9 8 8 9 10 12 13 13 13 12 12 10 7 5 3 4 6 7 4 3 3 3 2 2 2 3 3 1 2 3 1 1 3 1 1 3 3 2 2 0 1 2 1 1 1 2 2 1 1 2 2 2 1 1 1 1 2 3 7 14 19 19 16 14 15 16 16 15 14
3 4 5 5 5 5 7 9 11 11 9 7 7 8 9 8 10 12 13 12 11 10 9 12 14 15 15 14 13 12 10 8 5 2 7 9 5 3 4 5 3 3 2 4 4 2 1 2 2 2 3 2 2 3 3 3 1 2 2 2 2 1 3 4 3 3 3 3 3 2 3 5 5 7 9 13 17 19 19 19 19 17 16 18 20 20 19
3 3 3 4 5 6 7 9 10 10 9 8 8 10 11 12 13 14 15 14 14 13 12 12 13 13 14 14 13 12 12 11 9 4 3 6 5 4 4 4 4 3 3 3 4 4 3 3 3 3 2 2 3 4 3 2 2 1 2 3 3 4 5 5 5 5 6 7 7 7 8 11 13 15 16 17 19 17 15 18 20 19 19 21 23 24 23
2 2 2 4 5 6 8 8 8 9 10 9 10 10 11 12 12 12 11 10 10 10 11 13 13 11 10 12 12 11 12 13 12 8 2 3 3 2 4 5 4 4 4 5 7 9 8 4 2 3 3 1 2 3 3 3 2 2 3 4 2 1 3 4 4 4 3 4 5 6 9 12 14 16 16 16 16 16 16 19 21 21 22 23 23 23 23
2 1 2 3 4 6 7 8 8 10 10 9 9 8 9 10 9 8 8 7 7 6 4 8 13 11 6 8 11 11 11 12 12 12 9 4 2 4 7 8 6 6 8 11 12 12 10 4 2 4 3 0 1 2 1 2 3 3 3 2 0 2 6 6 4 3 4 5 7 10 12 12 13 15 16 16 17 18 20 22 24 23 23 22 22 22 22
1 1 1 2 4 6 7 7 9 11 10 9 8 7 7 8 8 9 9 9 10 10 5 4 11 13 10 9 10 11 11 11 9 10 11 11 8 7 11 13 13 13 15 16 15 14 11 5 3 4 2 1 3 3 1 2 4 3 2 2 4 6 6 4 5 6 6 7 10 13 13 11 10 14 17 18 21 23 24 24 24 24 23 23 22 21 20
1 1 1 2 3 5 7 7 8 9 10 9 7 6 6 6 6 8 9 6 6 7 4 1 7 15 17 15 12 9 8 6 5 7 10 13 14 13 15 18 18 19 19 17 15 15 12 6 4 4 3 5 7 5 2 4 5 4 3 3 5 6 4 4 7 7 3 4 10 12 8 7 9 15 19 21 23 26 26 26 25 24 23 22 22 20 18
1 0 2 2 2 4 5 6 7 7 8 8 7 6 5 5 5 6 6 5 5 7 6 5 7 11 14 17 15 11 8 7 8 10 13 16 18 17 18 19 20 21 20 17 13 9 7 5 4 3 3 6 7 4 2 4 5 4 1 2 0 5 8 7 5 4 5 12 17 14 11 13 17 20 21 23 24 26 27 26 24 23 21 21 21 21 19
1 0 3 3 2 2 4 4 5 5 6 6 6 5 4 5 6 5 6 8 11 13 13 13 12 10 9 13 16 17 14 11 11 13 16 18 20 20 20 21 23 23 23 21 16 10 6 6 6 5 5 5 4 2 2 3 3 2 2 3 2 10 12 9 6 9 13 18 19 17 19 22 23 22 23 24 25 26 26 25 23 23 22 21 22 22 21
2 2 4 5 3 1 2 3 3 4 4 4 5 4 5 6 6 6 8 10 10 11 13 11 8 7 10 14 18 20 19 15 14 17 19 20 21 22 22 23 24 24 24 23 17 10 7 7 6 7 9 7 4 3 2 2 2 2 4 5 10 13 11 9 13 19 22 21 20 22 26 27 24 23 24 24 24 25 26 25 24 24 23 22 21 21 19
3 3 5 7 5 2 1 2 2 2 2 3 3 3 3 4 4 6 9 9 9 13 16 12 6 5 8 12 16 18 20 19 19 20 22 22 22 22 22 22 23 24 23 22 17 9 6 5 5 6 10 11 7 3 2 3 3 3 4 9 15 17 17 18 22 25 26 26 26 27 27 27 25 24 23 23 24 25 26 26 24 23 22 20 19 17 15
3 4 7 8 7 4 1 1 1 1 2 4 4 4 4 4 5 7 9 10 10 13 13 10 5 2 3 6 10 14 17 19 19 20 20 20 19 21 22 21 21 20 19 16 12 8 6 6 7 9 12 12 8 3 3 4 3 2 7 15 20 22 25 27 27 28 29 31 31 28 24 23 24 25 25 26 26 25 25 24 22 20 19 17 15 14 12
3 5 7 9 8 5 2 1 1 1 1 3 5 6 6 5 7 8 9 9 10 10 9 5 3 1 1 3 7 10 11 13 16 16 15 14 14 16 17 16 16 15 14 11 7 5 6 8 9 10 11 11 8 4 3 4 3 8 15 21 24 26 28 29 30 31 31 30 30 29 26 25 26 27 28 28 26 23 22 21 19 18 16 14 13 11 9
3 6 8 10 8 6 4 2 2 2 2 4 6 7 6 6 7 8 8 7 7 8 8 5 3 1 1 2 4 6 7 9 10 11 10 11 13 13 12 11 12 11 12 11 8 6 6 8 8 7 7 8 7 5 2 1 5 15 22 24 25 27 28 29 30 31 29 27 29 30 30 29 28 28 29 27 25 23 21 20 18 17 16 14 11 9 8
3 6 9 10 9 7 5 3 3 4 6 6 7 7 6 6 7 8 6 5 5 5 5 4 4 3 2 2 3 4 6 8 8 8 7 9 13 13 10 9 9 7 7 8 7 5 5 6 5 3 3 4 4 2 2 5 10 19 25 25 25 27 28 28 29 28 25 26 28 28 28 28 28 28 27 26 24 22 20 18 17 16 14 13 11 9 8
4 8 10 11 10 8 6 4 4 6 7 7 7 8 8 7 7 6 5 4 5 4 3 4 4 2 3 2 1 2 5 7 7 7 7 7 9 10 9 7 5 5 6 6 5 4 4 5 4 2 2 3 2 3 9 15 19 23 26 27 27 27 27 27 27 26 24 25 27 26 26 26 26 25 25 23 22 20 18 16 15 14 13 12 10 8 8
6 9 11 12 10 8 5 4 5 6 8 7 7 9 9 7 6 5 4 3 5 5 5 5 3 1 3 3 1 1 3 3 4 6 6 5 4 7 9 6 3 3 5 5 4 4 5 6 5 3 2 2 4 12 19 23 25 25 27 28 26 25 25 26 26 24 23 23 24 23 23 23 22 22 21 21 19 17 16 15 14 13 12 12 10 8 7
8 11 12 11 8 6 5 4 5 7 9 8 7 6 6 5 5 4 3 3 3 4 5 5 3 2 3 4 3 3 2 1 2 4 5 4 3 4 6 4 2 2 3 2 3 4 5 5 4 3 2 2 8 18 23 24 24 24 25 25 24 23 24 24 23 23 22 22 21 21 21 20 20 20 19 18 17 16 15 14 13 12 11 10 9 8 6
8 10 10 8 6 5 5 5 6 8 9 7 4 3 2 3 3 2 2 3 2 2 3 3 3 3 4 4 3 4 4 3 3 3 2 3 3 2 2 2 2 3 3 1 2 3 4 3 3 3 2 1 7 19 23 24 25 25 23 24 24 24 23 23 23 22 22 21 20 20 20 19 18 18 17 16 15 14 13 13 12 11 10 9 9 8 6
6 7 7 6 5 5 6 6 7 7 7 5 2 2 2 3 2 1 1 3 1 1 2 3 3 4 5 6 5 4 4 3 3 3 3 3 3 2 2 2 1 3 3 1 2 2 3 1 2 2 1 4 10 19 24 24 25 25 24 24 24 24 23 22 21 20 19 18 18 19 18 17 17 17 16 15 14 14 13 13 12 11 10 9 8 8 6
4 5 5 5 5 7 7 7 6 5 5 3 2 2 2 2 2 1 3 3 1 1 3 5 4 3 5 7 6 5 4 4 5 6 4 3 3 4 3 1 1 3 2 2 2 3 4 2 1 0 4 10 16 21 23 24 25 25 24 23 23 22 22 21 20 19 18 17 17 18 18 17 16 16 16 14 12 12 12 13 12 11 10 9 8 7 6
3 5 5 5 6 7 7 6 4 3 2 2 2 1 1 1 1 1 1 1 1 2 3 4 5 5 6 7 6 6 6 5 4 4 3 2 2 4 2 1 1 3 0 3 2 4 4 2 1 3 8 15 20 23 24 25 25 25 24 23 23 22 22 21 20 19 18 16 16 16 17 17 17 16 15 13 11 10 10 10 10 9 10 9 8 7 7
4 5 6 5 6 6 4 2 2 2 1 2 1 1 2 1 1 1 1 1 2 4 4 4 7 8 7 6 5 6 6 5 3 3 3 2 2 3 3 2 2 2 1 2 3 4 2 3 3 5 12 20 23 24 26 27 25 25 24 23 22 23 22 21 21 20 18 17 16 15 15 16 17 15 14 11 10 9 9 7 7 8 8 8 8 8 8
5 5 6 5 4 4 3 1 1 1 0 0 1 2 1 1 1 1 1 2 4 5 6 8 11 10 5 4 4 4 4 4 3 4 3 2 2 3 2 0 1 1 1 2 2 1 2 4 4 6 15 23 25 26 27 27 26 26 25 23 23 23 23 22 21 21 19 18 17 16 15 16 17 15 13 10 9 9 8 8 7 7 7 7 7 9 9
5 5 5 3 1 1 2 1 1 0 2 2 2 3 4 4 3 3 3 5 7 8 9 13 15 12 7 5 4 3 2 3 3 2 1 2 3 3 1 2 1 2 2 2 1 0 2 4 4 9 19 25 27 27 28 28 27 26 26 24 23 24 23 22 21 21 20 19 19 17 16 17 17 15 12 11 10 9 9 8 8 8 8 7 8 9 9
4 4 3 2 1 0 1 1 0 0 2 3 4 5 6 6 5 5 5 6 9 12 14 16 17 14 8 5 3 2 2 3 3 1 1 2 2 1 1 2 2 3 2 1 1 2 3 5 8 17 25 28 28 28 28 28 27 26 26 25 24 23 23 22 21 20 20 20 19 19 18 18 17 15 14 13 13 10 8 7 8 8 8 7 8 8 8
4 3 2 2 0 0 0 1 2 2 2 3 4 6 6 5 5 5 6 7 10 14 17 16 15 13 8 5 4 2 2 3 3 1 2 2 2 0 1 2 1 1 2 2 4 5 4 6 13 23 29 29 28 28 28 27 26 26 25 24 23 23 23 23 22 21 21 21 21 20 20 19 18 17 15 14 13 11 9 8 8 7 6 5 6 8 8
4 3 2 1 1 2 2 2 3 3 3 3 3 3 5 6 5 5 6 8 12 18 20 17 13 9 5 4 3 2 2 4 3 0 1 2 2 1 2 1 1 2 2 4 5 5 4 8 17 27 31 30 29 30 30 28 27 25 24 23 23 24 24 23 23 22 23 23 22 21 20 20 19 17 16 14 13 11 10 9 8 7 6 6 6 7 8
3 3 2 1 1 2 2 1 1 2 3 5 5 5 7 8 7 6 7 10 16 19 18 15 11 7 1 2 2 2 2 2 2 1 2 2 2 1 1 1 1 3 3 3 4 5 7 11 19 28 33 33 32 32 31 29 27 25 24 23 23 24 23 23 23 23 23 22 21 20 19 19 19 17 16 14 13 11 10 10 10 9 7 6 4 5 6
3 3 3 2 1 2 2 2 1 2 3 3 6 9 10 10 9 7 7 13 19 20 15 10 7 4 1 2 3 2 1 1 2 2 1 1 2 2 2 1 3 4 4 5 6 8 9 13 21 31 36 36 34 33 31 29 26 24 23 22 23 23 23 23 23 22 21 21 20 19 18 19 19 17 15 13 12 11 11 12 11 9 8 7 5 3 3
3 3 4 4 4 4 3 2 2 4 5 5 6 9 11 13 13 10 9 15 20 16 9 5 4 4 3 2 1 1 1 2 2 2 1 2 2 3 3 4 6 6 6 6 8 9 10 13 23 33 38 38 36 33 30 27 25 24 23 23 23 23 23 22 22 22 21 20 18 17 17 17 17 15 13 12 12 13 14 13 12 10 10 9 7 4 3
3 3 3 5 6 7 6 4 5 6 7 8 8 8 12 15 15 12 13 18 20 14 7 5 5 4 2 2 2 2 2 2 2 1 2 3 2 4 5 5 5 6 6 7 8 9 10 14 23 31 36 38 38 33 29 27 26 25 24 24 24 24 23 23 22 22 21 19 17 16 16 16 15 14 13 13 13 14 14 13 12 12 11 11 9 7 6
Wind_Direction
335 331 322 323 329 325 315 318 346 350 354 2 339 280 321 300 139 78 144 151 149 138 107 320 217 197 263 279 282 258 257 270 277 289 292 274 239 229 291 308 105 91 112 125 113 114 83 47 83 128 111 117 14 318 219 144 115 97 139 192 167 117 85 89 31 321 302 300 328 7 36 69 74 43 38 77 75 126 137 166 162 121 138 130 83 122 176
336 332 333 332 327 322 318 324 358 343 341 0 353 344 3 71 60 87 149 153 142 68 140 147 201 246 269 279 283 260 256 264 266 273 285 283 280 31 12 332 59 67 79 95 107 141 101 53 36 104 116 136 0 12 91 141 122 102 174 178 162 159 77 94 95 18 358 350 349 2 18 38 60 26 352 2 52 96 120 119 84 106 178 155 121 158 165
335 332 334 331 322 325 325 313 325 335 332 335 340 343 14 99 60 90 164 173 295 327 197 183 165 196 258 272 298 277 262 261 259 256 266 284 279 76 28 326 39 54 67 78 64 64 87 92 122 91 72 41 359 23 53 89 100 107 139 133 123 121 75 95 124 135 140 170 249 226 66 23 33 18 357 8 41 72 116 114 84 120 183 144 126 151 137
334 335 336 333 331 339 334 316 330 359 353 310 274 300 228 138 75 102 180 206 257 273 267 265 160 183 188 74 316 274 261 281 273 250 242 302 329 63 32 346 38 48 65 78 48 35 56 80 113 113 65 61 329 18 51 69 82 93 98 97 99 99 65 60 93 119 153 178 209 234 136 78 39 356 2 12 6 2 87 110 133 160 146 83 184 154 141
332 342 340 337 348 350 347 338 333 337 277 254 240 212 174 116 118 138 167 215 245 264 270 259 160 158 124 121 282 258 252 282 288 244 189 356 6 50 33 16 44 56 75 91 55 31 52 59 76 86 61 115 1 24 51 55 56 85 84 63 79 100 66 35 59 69 74 93 77 62 76 79 66 43 25 20 10 23 80 93 136 146 127 128 193 147 137
334 346 339 344 3 353 352 353 341 324 228 176 137 179 166 91 319 210 174 192 209 239 243 203 170 94 104 136 280 275 271 266 260 271 335 10 12 51 36 10 23 54 92 113 96 51 58 44 41 56 37 57 24 19 36 36 38 74 64 37 80 105 64 41 77 70 56 51 62 78 85 78 61 58 46 31 34 55 78 82 60 107 131 164 154 134 122
342 348 345 4 4 349 348 359 349 340 183 158 139 44 98 67 325 233 202 224 183 165 164 158 160 139 125 216 268 258 269 266 261 323 18 18 3 45 69 357 4 34 66 102 97 91 110 78 31 85 49 43 55 46 38 26 36 60 64 42 77 96 72 94 97 77 54 38 40 73 86 82 59 49 46 45 53 64 73 76 67 72 90 119 123 113 97
349 351 358 5 359 353 5 14 1 348 149 145 121 46 79 19 318 308 308 313 160 135 106 118 128 132 163 219 259 242 249 331 33 7 43 70 337 36 86 56 36 54 62 75 74 186 149 126 138 165 122 74 81 106 178 79 28 35 52 40 39 76 142 185 116 77 52 32 51 74 82 84 68 47 40 40 47 55 61 63 64 70 84 99 105 104 99
349 356 5 2 0 1 10 18 13 134 145 121 51 105 184 279 307 325 315 307 82 109 83 110 114 31 207 215 249 243 241 59 90 43 31 63 84 90 115 106 68 60 63 69 73 83 105 104 115 134 118 102 101 101 144 162 52 26 42 41 21 70 135 187 91 84 64 25 83 84 79 79 67 45 32 29 35 52 50 45 43 71 120 121 113 112 128
354 1 4 4 6 5 11 35 85 141 141 84 82 152 237 304 334 355 250 280 14 123 104 96 118 219 208 203 242 263 263 297 96 77 28 31 54 98 127 109 74 63 64 62 66 86 92 94 95 98 94 85 80 78 74 72 76 99 104 57 29 96 128 141 101 94 123 214 169 50 49 66 53 17 10 18 51 80 62 38 24 28 125 137 129 126 130
2 359 4 10 12 9 17 61 143 155 149 103 130 170 280 351 12 5 15 68 259 182 139 127 159 221 212 196 229 314 41 353 42 113 85 8 35 82 100 95 84 74 68 76 91 92 91 92 91 88 84 76 68 63 59 51 43 58 132 94 51 89 112 119 104 102 144 211 281 9 43 82 20 309 320 345 86 94 80 57 34 34 73 109 104 110 119
8 9 18 21 16 12 18 67 168 171 168 158 153 174 321 8 24 12 20 106 247 245 158 191 210 235 181 145 127 45 73 61 71 109 122 122 55 72 75 80 90 93 93 112 112 99 89 85 83 77 69 64 61 53 48 40 21 22 75 118 117 101 97 100 78 94 134 176 6 49 140 216 283 356 43 83 100 98 92 78 55 60 84 100 104 111 117
21 28 34 26 15 16 27 72 170 185 177 93 169 220 320 359 17 12 4 309 276 281 162 51 25 45 104 105 91 73 79 82 87 96 98 94 72 57 55 66 90 104 118 129 123 106 85 64 62 56 32 30 45 42 37 34 21 21 41 84 115 120 116 105 70 74 117 87 38 119 171 133 86 75 73 97 98 92 89 74 55 62 84 102 110 115 118
30 40 41 26 20 30 47 85 148 174 134 150 218 271 312 332 334 329 327 326 297 283 155 68 34 26 63 82 85 82 70 70 80 81 71 66 61 52 62 89 100 99 117 128 111 83 72 59 44 30 0 4 27 23 14 25 31 29 24 23 73 113 122 108 66 51 121 100 75 102 117 127 140 147 204 150 140 198 120 90 68 76 102 120 121 122 127
39 45 40 31 32 41 58 86 117 133 128 164 284 315 321 315 311 308 298 269 246 7 27 53 314 322 21 53 78 89 64 44 62 62 46 60 66 58 71 104 116 114 111 104 80 54 65 92 81 61 24 32 67 17 341 357 13 26 30 29 51 76 113 134 117 71 104 104 102 113 140 211 196 160 167 24 343 218 151 102 79 88 119 135 135 131 136
51 51 40 35 35 43 63 85 103 101 18 325 319 323 316 308 311 315 293 261 143 39 1 352 326 79 72 66 71 87 92 68 70 53 24 30 51 67 83 102 123 137 112 74 65 66 67 82 117 129 141 184 173 146 19 15 352 354 9 35 52 52 56 99 102 95 111 111 116 151 185 228 146 150 257 359 355 199 137 80 68 135 135 144 143 137 143
60 53 41 33 27 41 67 85 86 20 339 320 321 323 313 308 334 11 303 280 109 63 18 18 72 105 86 69 60 68 84 93 96 96 76 358 354 52 76 85 92 99 91 66 43 54 70 79 105 103 123 221 147 125 124 91 61 340 340 13 39 39 21 52 88 106 113 104 102 136 190 227 64 170 296 340 324 177 115 67 243 164 148 157 152 143 150
63 51 41 33 32 47 69 73 40 7 341 329 333 337 336 355 37 56 35 36 85 48 37 46 71 80 74 84 95 96 99 97 90 84 78 7 342 34 62 78 76 64 68 77 68 66 76 85 108 109 134 279 70 118 151 111 89 330 325 10 37 29 21 60 105 107 84 86 106 100 307 209 164 310 312 344 96 139 105 196 197 141 138 157 157 151 156
62 50 42 38 45 63 75 50 18 355 342 342 348 2 42 55 68 76 48 46 68 63 52 57 69 71 68 71 82 92 107 114 112 107 84 23 54 92 79 70 73 52 50 74 91 94 87 83 195 131 111 351 357 110 109 98 123 283 47 68 63 42 33 34 69 95 82 78 100 92 313 223 215 340 342 59 109 198 179 138 141 133 133 148 156 158 161
54 43 45 50 55 69 67 31 2 346 347 357 7 37 70 70 81 82 59 55 69 68 64 65 69 73 71 65 67 74 82 107 123 131 128 143 160 125 84 59 75 68 54 68 82 100 120 133 235 119 104 105 117 112 101 68 117 151 138 127 75 76 87 65 62 108 97 66 79 118 190 247 343 37 28 18 47 161 137 119 122 134 138 143 148 152 160
42 37 49 60 61 63 50 19 357 350 359 16 39 76 87 89 94 93 83 72 67 63 65 70 72 73 70 65 63 63 63 74 108 153 142 135 142 131 131 183 183 101 94 117 108 92 142 147 183 98 107 107 68 109 126 111 73 64 155 132 82 11 88 154 174 177 130 117 156 195 239 303 283 160 133 104 126 142 140 129 124 132 139 139 137 140 149
37 38 52 68 67 59 38 12 359 2 19 45 78 92 95 98 99 98 91 77 70 69 68 72 74 71 69 67 62 57 56 55 51 116 150 137 114 97 133 141 109 102 149 130 109 128 162 132 139 127 104 84 71 100 115 114 117 296 341 45 46 48 100 116 114 101 100 110 137 142 83 78 103 120 120 123 131 141 146 139 132 133 137 136 133 134 138
42 38 59 79 70 52 33 13 5 16 40 72 96 99 100 100 94 91 88 81 78 77 72 75 80 74 67 66 64 59 56 55 47 40 165 153 111 89 124 128 91 103 146 129 122 147 147 131 143 134 107 103 109 96 72 80 123 157 37 63 93 106 98 88 96 111 97 73 76 90 89 88 100 113 121 128 136 143 147 141 134 134 135 133 131 132 131
46 48 78 86 69 45 31 22 23 36 52 79 98 99 97 94 85 81 80 77 78 79 73 68 63 55 52 60 68 69 63 59 55 44 45 184 169 130 138 145 139 137 129 123 128 124 113 111 122 101 95 126 117 104 87 85 114 144 109 100 98 92 86 83 102 133 121 73 79 93 91 93 103 113 123 131 136 140 140 133 128 129 128 127 127 126 126
43 63 97 96 73 45 35 40 52 56 60 77 92 92 89 83 73 68 70 71 73 83 83 52 43 43 65 78 73 71 69 66 62 54 51 68 174 190 164 141 136 137 126 128 135 122 103 91 91 97 108 193 79 107 136 131 148 166 137 110 113 112 108 101 91 88 92 104 113 102 93 97 108 116 125 132 131 131 129 123 122 124 124 123 124 124 123
29 64 120 113 77 48 45 60 70 66 68 80 87 89 91 85 75 73 80 85 80 78 86 62 49 58 81 89 73 70 77 81 71 55 59 71 88 137 145 126 117 122 122 121 120 105 88 80 87 91 97 87 93 114 150 122 122 115 80 110 139 125 113 109 113 108 94 100 119 115 98 91 104 119 127 130 129 127 125 123 124 125 123 123 123 121 119
13 75 150 137 78 51 56 77 81 71 71 82 89 94 92 85 87 85 78 74 74 71 71 59 56 60 63 63 64 72 81 79 58 52 77 95 99 108 119 119 119 121 115 106 96 85 78 76 74 70 88 100 93 90 97 107 105 88 70 100 117 111 109 121 126 129 130 145 150 144 122 106 125 132 131 131 130 127 126 125 125 124 123 124 123 121 120
354 105 176 165 99 56 59 83 92 79 74 83 90 89 83 82 92 85 60 57 98 108 102 81 66 62 57 54 62 80 88 74 67 77 98 115 116 112 115 119 117 111 103 94 84 73 67 77 85 81 101 102 89 68 70 87 77 65 21 319 66 146 160 161 139 125 153 160 159 151 130 127 139 140 135 133 132 127 124 124 124 123 123 123 122 122 123
320 221 189 187 162 62 57 84 103 93 83 86 86 81 83 86 81 74 80 98 108 107 96 80 68 62 55 55 71 90 94 81 80 93 109 119 118 112 110 109 104 100 96 92 85 76 69 80 85 67 62 87 106 93 63 62 57 40 338 331 132 152 161 164 137 118 133 149 155 146 134 135 141 142 137 133 130 127 124 124 124 123 122 121 121 121 122
280 232 198 196 191 131 64 79 105 107 94 88 88 89 90 86 82 90 104 111 113 107 95 85 76 73 65 62 74 90 96 95 95 100 105 107 105 102 103 102 98 97 95 89 84 80 67 63 67 60 55 68 101 112 87 101 96 18 10 71 118 136 142 142 139 136 138 145 148 141 137 137 138 137 135 131 129 128 127 126 126 125 124 124 123 123 123
265 229 203 197 196 192 88 64 99 121 87 53 69 97 93 79 86 102 105 108 120 114 100 89 88 91 71 59 65 81 93 99 99 95 93 92 93 96 99 98 93 91 89 82 75 69 53 42 46 52 51 59 77 94 103 108 94 11 30 91 111 118 117 120 128 132 135 139 139 134 132 134 136 137 136 134 133 132 129 129 129 128 127 127 125 125 125
251 221 200 194 197 197 171 70 127 139 14 22 62 101 111 103 102 108 110 111 115 112 102 88 79 80 53 46 57 73 89 99 98 93 88 86 88 91 92 88 84 81 80 76 65 48 36 46 57 57 53 58 73 88 67 71 90 117 104 103 109 115 118 121 125 128 133 138 136 131 132 139 141 139 137 137 137 135 132 132 131 130 129 128 126 126 126
227 205 189 187 194 195 188 221 238 243 17 53 92 107 117 124 120 118 124 125 110 95 87 82 82 88 12 47 61 69 82 91 90 83 76 76 82 85 81 76 74 69 64 63 61 50 52 63 70 68 60 59 69 82 55 48 92 123 116 112 116 120 121 123 127 130 135 138 135 131 135 141 140 136 136 137 137 135 133 133 132 132 132 130 128 128 126
191 185 178 179 186 187 184 208 236 217 160 111 108 110 118 133 130 122 127 135 116 88 74 70 79 79 16 26 49 55 61 69 73 70 62 64 76 80 71 62 62 61 55 55 63 67 58 56 64 68 54 44 52 69 65 51 117 122 120 121 124 126 126 128 131 132 134 135 131 128 130 135 137 137 138 139 139 140 140 139 138 138 135 133 132 130 123
161 170 170 171 173 177 182 193 203 186 163 130 108 108 120 136 132 122 126 135 116 88 67 63 76 87 70 36 17 33 55 62 64 68 71 67 68 70 68 61 56 52 51 55 59 55 40 41 52 50 4 4 26 53 178 170 140 129 127 130 133 134 135 136 137 137 136 133 131 130 132 136 139 140 141 144 147 149 150 149 147 146 143 140 138 132 121
153 161 163 162 163 168 175 176 175 170 158 137 112 106 116 129 126 119 126 123 95 84 87 87 83 105 124 110 21 45 75 69 57 63 77 73 60 57 62 66 56 42 46 50 47 39 33 38 46 30 349 16 57 159 167 156 145 139 138 141 142 142 141 142 143 143 140 137 137 138 139 141 142 144 147 151 154 155 157 158 157 154 151 147 142 131 121
149 156 155 153 155 158 159 160 168 165 156 141 121 110 114 124 124 118 122 107 79 77 97 107 104 136 143 134 120 71 81 61 39 49 54 54 56 54 54 60 60 36 39 34 18 22 36 44 59 69 12 29 131 157 156 150 147 147 146 147 147 146 145 146 148 148 145 145 147 148 147 148 150 152 155 158 161 164 166 163 158 154 149 146 144 138 127
149 154 152 149 149 150 145 145 155 160 157 146 124 110 113 118 113 104 94 91 93 92 97 108 125 141 124 105 80 87 100 68 50 57 47 42 55 45 39 49 62 44 39 0 341 19 37 36 54 77 25 30 142 154 155 152 151 152 149 148 150 150 149 151 154 155 153 153 157 160 161 162 164 165 165 166 168 170 169 166 163 160 156 154 156 154 141
148 154 153 150 149 145 145 147 147 152 158 151 123 94 98 98 101 94 47 51 91 107 91 103 135 135 118 103 83 98 117 98 64 59 47 47 59 46 35 60 62 54 65 13 334 35 52 10 13 67 37 346 162 163 163 160 158 158 156 152 151 151 153 155 157 159 159 158 160 162 162 163 167 171 173 175 178 181 182 182 181 178 174 172 174 174 167
146 155 154 155 153 144 146 152 146 144 153 151 109 61 65 69 76 121 64 53 53 82 98 121 135 127 131 140 128 107 115 118 107 116 111 67 69 97 101 93 75 64 64 328 308 63 86 37 24 91 155 225 188 174 171 168 166 166 166 163 160 159 161 162 161 161 160 160 164 166 164 162 164 168 172 177 183 188 191 191 188 186 183 181 181 183 181
140 152 156 159 154 147 148 152 147 141 145 134 68 42 59 53 29 52 82 74 348 245 137 134 135 131 141 147 135 116 118 123 119 119 109 54 52 86 94 101 108 82 69 246 227 91 85 81 50 39 213 201 187 180 179 177 174 173 173 174 172 170 170 170 169 167 165 164 167 172 172 172 172 173 171 169 170 174 178 181 182 182 182 181 179 179 179
141 158 164 160 151 148 148 145 135 129 126 105 64 14 344 354 1 40 99 149 197 167 134 136 143 139 134 132 129 128 131 127 115 112 104 55 64 94 91 12 63 75 154 214 158 68 64 95 58 273 217 192 185 186 185 181 179 179 180 182 181 179 178 176 174 173 175 175 172 169 169 173 176 172 164 156 152 157 166 172 177 182 184 184 185 189 191
145 152 156 155 148 144 144 124 97 91 71 67 71 10 336 347 351 333 294 212 162 137 127 135 139 134 125 118 118 123 128 128 112 92 94 104 110 92 66 35 52 96 168 163 85 57 84 170 212 226 195 185 188 191 188 184 183 183 184 186 186 183 181 180 178 177 181 186 183 174 169 171 171 164 156 151 149 153 159 164 170 178 181 183 190 199 199
153 148 150 154 147 138 142 152 114 125 154 150 142 153 191 246 257 252 193 181 169 156 157 161 156 148 134 113 109 111 124 131 107 74 80 106 87 65 69 65 231 157 125 83 53 57 203 223 237 202 180 182 190 194 191 189 189 187 187 190 191 187 186 187 187 186 186 188 188 182 174 171 167 160 155 157 158 157 158 160 163 169 172 174 182 188 186
162 155 146 140 75 118 158 198 289 203 198 202 169 150 164 189 208 206 184 175 168 164 168 170 162 149 129 114 122 123 120 116 99 67 92 113 60 43 126 172 126 76 84 64 30 241 249 266 237 186 178 184 191 193 192 192 192 190 190 192 193 193 194 195 196 196 193 190 190 187 181 175 170 165 162 165 165 160 156 154 156 162 168 172 177 182 184
176 174 148 128 336 276 144 129 346 214 193 196 189 178 178 189 198 188 174 174 175 171 170 167 159 146 128 112 122 122 94 99 97 37 28 99 86 36 182 143 86 56 60 40 272 224 242 252 211 185 182 186 190 191 192 193 192 193 194 194 193 195 196 195 194 196 195 191 190 187 183 178 176 171 167 166 165 161 155 148 150 158 166 171 177 185 193
189 191 149 120 164 274 137 183 219 221 204 192 191 186 183 188 190 176 172 181 182 171 162 154 148 141 126 103 105 108 68 78 89 6 7 96 117 16 25 82 113 148 144 185 233 241 246 231 200 186 183 185 187 186 187 188 189 192 194 192 189 189 188 186 185 186 186 184 182 180 179 179 178 175 169 167 167 167 166 164 163 166 172 180 188 197 208
195 196 169 151 183 190 183 206 230 232 214 204 207 191 178 180 186 181 176 179 174 167 159 151 142 133 108 73 91 103 39 51 83 104 20 91 110 32 22 31 293 256 183 183 211 231 231 207 191 183 181 183 183 182 181 181 183 185 186 184 183 182 182 181 181 180 179 178 177 176 176 178 178 175 172 171 172 174 177 182 182 179 180 191 207 219 227
203 205 190 169 186 198 192 195 268 262 232 222 222 213 198 194 191 181 168 167 167 166 161 152 141 134 99 28 75 91 36 45 89 88 33 62 102 143 127 138 241 257 238 213 214 223 219 202 185 179 179 180 179 178 178 179 180 181 181 181 181 181 181 180 179 177 177 176 175 173 174 177 178 177 176 175 175 176 182 189 192 190 188 192 203 220 229
213 221 210 195 216 225 186 143 137 292 290 256 226 219 215 209 200 191 178 170 166 160 153 143 131 119 84 49 63 48 322 215 123 97 92 167 173 155 142 187 220 226 229 226 218 216 214 198 182 178 180 180 179 179 179 179 180 182 183 183 182 181 180 178 177 176 175 174 172 170 173 178 180 181 181 183 184 184 185 189 193 193 190 188 185 184 204
217 231 234 225 215 204 180 161 209 254 277 284 258 234 220 207 200 197 183 170 163 155 143 137 128 91 60 66 94 88 165 152 103 88 179 215 174 138 159 218 230 223 220 220 215 215 216 201 186 181 181 181 181 181 181 181 180 180 180 180 180 178 177 177 178 177 175 173 172 173 177 180 182 183 186 190 192 192 192 194 196 195 195 200 206 207 209
215 221 237 231 221 218 228 254 268 262 268 283 283 252 218 204 200 195 180 170 167 162 149 138 127 93 76 161 161 117 104 96 64 53 225 225 194 174 191 214 223 220 224 228 225 226 224 206 192 186 184 183 183 182 180 179 179 177 176 177 179 179 179 180 181 180 178 178 179 180 182 182 182 184 188 190 192 195 198 200 200 200 205 212 215 216 223